This demonstration page uses our WeatherBlox Daily Observations layout. Learn more.

Hourly Observations for January 20, 2020

Temp ( °F °C ) Dew Point ( °F °C ) Humidity (%) Winds ( mph kmh ) Pressure ( in mb ) Visibility ( mi km ) Precip ( " mm )
12:54 am 00:54 Cloudy 9 -12.8 -2 -18.9 61 61 N 8 13 30.71 1040 10 16.0934 0 0
1:54 am 01:54 Cloudy 9 -12.8 -2 -18.9 61 61 NNE 7 11 30.71 1040 10 16.0934 0 0
2:54 am 02:54 Mostly Clear 7 -13.9 -2 -18.9 66 66 NNE 7 11 30.71 1040 10 16.0934 0 0
3:54 am 03:54 Clear 8 -13.3 -1 -18.3 66 66 NE 7 11 30.72 1040 10 16.0934 0 0
4:54 am 04:54 Clear 8 -13.3 -3 -19.4 60 60 NNE 8 13 30.71 1040 10 16.0934 0 0
5:54 am 05:54 Clear 7 -13.9 -2 -18.9 66 66 NNE 12 19 30.73 1041 10 16.0934 0 0
6:54 am 06:54 Cloudy 5 -15 -3 -19.4 69 69 NNE 8 13 30.74 1041 10 16.0934 0 0
7:54 am 07:54 Partly Cloudy 6 -14.4 -4 -20 63 63 N 8 13 30.76 1042 10 16.0934 0 0
8:54 am 08:54 Mostly Cloudy 5 -15 -5 -20.6 63 63 N 8 13 30.77 1042 10 16.0934 0 0
9:54 am 09:54 Sunny 7 -13.9 -4 -20 60 60 NNE 9 15 30.77 1042 10 16.0934 0 0
10:54 am 10:54 Sunny 8 -13.3 -3 -19.4 60 60 NE 12 19 30.79 1043 10 16.0934 0 0
11:54 am 11:54 Sunny 9 -12.8 -2 -18.9 61 61 N 8 13 30.78 1042 10 16.0934 0 0
12:54 pm 12:54 Sunny 10 -12.2 -1 -18.3 61 61 NNE 9 15 30.77 1042 10 16.0934 0 0
1:54 pm 13:54 Sunny 10 -12.2 0 -17.8 63 63 N 7 11 30.75 1041 10 16.0934 0 0
2:54 pm 14:54 Sunny 11 -11.7 1 -17.2 64 64 N 7 11 30.73 1041 10 16.0934 0 0
3:54 pm 15:54 Sunny 11 -11.7 2 -16.7 67 67 NE 8 13 30.73 1041 10 16.0934 0 0
4:54 pm 16:54 Sunny 10 -12.2 1 -17.2 67 67 NNE 7 11 30.73 1041 10 16.0934 0 0
5:54 pm 17:54 Clear 5 -15 0 -17.8 79 79 NE 7 11 30.74 1041 10 16.0934 0 0
6:54 pm 18:54 Clear 4 -15.6 -1 -18.3 80 80 NE 3 6 30.75 1041 10 16.0934 0 0
7:54 pm 19:54 Clear 5 -15 -1 -18.3 76 76 E 5 7 30.73 1041 10 16.0934 0 0
8:54 pm 20:54 Clear 5 -15 -1 -18.3 76 76 Calm 30.74 1041 10 16.0934 0 0
9:54 pm 21:54 Clear 3 -16.1 -2 -18.9 79 79 ENE 5 7 30.73 1041 10 16.0934 0 0
10:54 pm 22:54 Clear 4 -15.6 -1 -18.3 80 80 Calm 30.72 1040 10 16.0934 0 0
11:54 pm 23:54 Clear 2 -16.7 -3 -19.4 80 80 S 5 7 30.71 1040 10 16.0934 0 0

Powered by AerisWeather